This is the latest recevied weather packets stored in our database for station/object IZ5MMH-14. If no packets are shown the sender has not sent any weather packets the latest 10 day(s).
| Time | Temp. | Humidity | Pressure | Rain* | Wind** | Luminosity | Snow |
|---|---|---|---|---|---|---|---|
| 1777770609 | 15° C | 96% | 1020.9 hPa | - | - | - | - |
| 1777770009 | 15° C | 97% | 1020.9 hPa | - | - | - | - |
| 1777769409 | 14.44° C | 96% | 1020.9 hPa | - | - | - | - |
| 1777768809 | 15° C | 98% | 1021.1 hPa | - | - | - | - |
| 1777768209 | 15° C | 98% | 1021.1 hPa | - | - | - | - |
| 1777767609 | 15° C | 98% | 1021.2 hPa | - | - | - | - |
| 1777767009 | 15° C | 97% | 1021.3 hPa | - | - | - | - |
| 1777766409 | 15.56° C | 97% | 1021.4 hPa | - | - | - | - |
| 1777765808 | 15.56° C | 97% | 1021.5 hPa | - | - | - | - |
| 1777765209 | 16.11° C | 97% | 1021.5 hPa | - | - | - | - |
| 1777764609 | 16.11° C | 98% | 1021.5 hPa | - | - | - | - |
| 1777764009 | 16.67° C | 99% | 1021.6 hPa | - | - | - | - |
| 1777763408 | 16.67° C | 98% | 1021.6 hPa | - | - | - | - |
| 1777762809 | 16.67° C | 99% | 1021.6 hPa | - | - | - | - |
| 1777762208 | 16.67° C | 98% | 1021.7 hPa | - | - | - | - |
| 1777761609 | 16.67° C | 96% | 1021.7 hPa | - | - | - | - |
| 1777761009 | 17.22° C | 96% | 1021.7 hPa | - | - | - | - |
| 1777760409 | 17.78° C | 96% | 1021.8 hPa | - | - | - | - |
| 1777759209 | 17.78° C | 94% | 1021.6 hPa | - | - | - | - |
| 1777758608 | 17.78° C | 93% | 1021.6 hPa | - | - | - | - |
| 1777758009 | 17.78° C | 94% | 1021.5 hPa | - | - | - | - |
| 1777757409 | 17.78° C | 94% | 1021.5 hPa | - | - | - | - |
| 1777756808 | 17.78° C | 94% | 1021.5 hPa | - | - | - | - |
| 1777756208 | 17.78° C | 93% | 1021.6 hPa | - | - | - | - |
| 1777755609 | 17.78° C | 92% | 1021.6 hPa | - | - | - | - |
* Rain since midnight (hover to see other rain measurements)
** Current wind speed in m/s (hover to see current wind gust speed)